Volver al catálogo

STARLINK-35395

ActivoComunicacionesVLEO
NORAD 66014·PAYLOAD·🇺🇸 United States

Lanzado Oct 16, 2025 desde Cape Canaveral Space Force Station

Loading…

Próximos Pases (próximas 24 horas)

TLE

ActualizadoSource: CelesTrak SupGP

Época: Sep 14, 2026, 14:22 UTC

1 66014C 25232K   26257.59909722  .00040610  00000+0  12001-2 0  2579
2 66014  53.1587 305.4689 0001195  76.2350 233.9024 15.34362404    18

Sigue STARLINK-35395 en tiempo real con AllMySat

Download on the App Store